STARLINK-33772 (63656 NORAD) Tracking and Keplerian Element Data

This shows tracking and keplerian element data for the satellite.

Feedback or suggestion? Click here.




ElementValue
Catalog63656
NameSTARLINK-33772
Epoch Orbit3780
Epoch Day353.30667382
Epoch Year2025
RAAN99.1381
Inclination42.9982
Eccentricity1.62E-05
Argument of Perigee63.6673
Mean Anonmoly296.4195
Mean Motion15.27586639
Decay Rate0.00023142
L11 63656U 25083Y 25353.30667382 .00023142 00000+0 84767-3 0 9993
L22 63656 42.9982 99.1381 0000162 63.6673 296.4195 15.27586639 37809



Live tracking and technical data element details for STARLINK-33772 (NORAD 63656). STARLINK-33772 can be tracked NOW for your location showing map with azimuth and elevation plus other details from your city location.







IsCatalogInMostPopularTable: catalog: 63656, numindb: 2
Update: records affected: 1



GetName: 63656 STARLINK-33772

Hit Count: updated at: Tue, 10 Feb 2026 01:52:32 GMT